Tracking 28790 objects as of 19-Apr-2024
HD Live streaming from Space Station
objects crossing your sky now

WESTAR 5

Track WESTAR 5 now!
WESTAR 5 is classified as:


NORAD ID: 13269
Int'l Code: 1982-058A
Perigee: 36,031.7 km
Apogee: 36,153.8 km
Inclination: 13.9 °
Period: 1,451.4 minutes
Semi major axis: 42463 km
RCS: 3.0486 m2 (large)
Launch date: June 9, 1982
Source: United States (US)
Launch site: AIR FORCE EASTERN TEST RANGE (AFETR)
Your satellite tracking list
Your tracking list is empty




NASA's NSSDC Master Catalog

Two Line Element Set (TLE):
1 13269U 82058A   24109.86853927 -.00000196  00000-0  00000-0 0  9995
2 13269  13.8723 342.8372 0014379 251.5283  35.5776  0.99214465111709
Source of the keplerian elements: AFSPC